Find Echostar V

NORAD ID: 25913 Int'l Des: 1999-050 Owner: ECHO Country: US operational
HEOCIRCULAR

リアルタイム位置

3D地球を読み込み中...

Echostar Vについて

説明を読み込み中...

次回通過

Passes for default location (London). Set your location on the main map for personalized predictions.

高度履歴

Loading altitude history...

軌道要素

1 25913U 99050A 26104.49975596 -.00000069 00000-0 00000+0 0 9995
2 25913 11.8522 36.6131 0004698 330.3908 216.8624 0.98747436 96242
Epoch: Apr 14, 2026 • Age: 11 hours

現在のステータス

高度 36199.9 km
速度 3.06 km/s
衛星直下点 -2.86°S, 160.88°W
打ち上げ日 Sep 23, 1999
運用期間 26.5 years
タイプ other

技術仕様

分類 Payload
質量 3177.00 kg
乾燥質量 1600.00 kg
総質量 3177.00 kg
長さ 3.10 m
直径 2.40 m
スパン 25.00 m
形状 Box + 2 Pan
製造者 LOR
バスタイプ FS-1300
フェーズステータス Renamed
所有者/国 ECHO/US

Most Searched